Satellite: CO-66
Catalog number: 32791
Epoch time:      11096.18958435
Element set:    0945
Inclination:      097.8542 deg
RA of node:       161.2938 deg
Eccentricity:    0.0016948
Arg of perigee:   053.3374 deg
Mean anomaly:     306.9384 deg
Mean motion:   14.81983142 rev/day
Decay rate:      1.868e-05 rev/day^2
Epoch rev:           15884
Checksum:              362

Satellite: RS-30
Catalog number: 32953
Epoch time:      11097.71967981
Element set:     618
Inclination:      082.5029 deg
RA of node:       206.5212 deg
Eccentricity:    0.0019375
Arg of perigee:   176.9854 deg
Mean anomaly:     183.1351 deg
Mean motion:   12.43011501 rev/day
Decay rate:        1.0e-07 rev/day^2
Epoch rev:           13033
Checksum:              277

Satellite: TACSAT-3
Catalog number: 35001
Epoch time:      11096.83340053
Element set:     557
Inclination:      040.4546 deg
RA of node:       245.3815 deg
Eccentricity:    0.0022333
Arg of perigee:   036.5519 deg
Mean anomaly:     323.6818 deg
Mean motion:   15.46507034 rev/day
Decay rate:     3.0327e-04 rev/day^2
Epoch rev:           10602
Checksum:              263

Satellite: PHARMSAT
Catalog number: 35002
Epoch time:      11096.78944557
Element set:     517
Inclination:      040.4705 deg
RA of node:       243.1395 deg
Eccentricity:    0.0025674
Arg of perigee:   039.4082 deg
Mean anomaly:     320.8592 deg
Mean motion:   15.46481642 rev/day
Decay rate:     2.6938e-04 rev/day^2
Epoch rev:           10604
Checksum:              302

Satellite: HAWKSAT1
Catalog number: 35003
Epoch time:      11097.74225018
Element set:     574
Inclination:      040.4566 deg
RA of node:       217.4780 deg
Eccentricity:    0.0022504
Arg of perigee:   072.4670 deg
Mean anomaly:     287.8602 deg
Mean motion:   15.56850003 rev/day
Decay rate:     9.0130e-04 rev/day^2
Epoch rev:           10641
Checksum:              266

Satellite: CP6
Catalog number: 35004
Epoch time:      11097.67282457
Element set:     578
Inclination:      040.4563 deg
RA of node:       212.3830 deg
Eccentricity:    0.0021632
Arg of perigee:   078.9102 deg
Mean anomaly:     281.4144 deg
Mean motion:   15.60274916 rev/day
Decay rate:    1.11248e-03 rev/day^2
Epoch rev:           10645
Checksum:              283

Satellite: METEOR-M
Catalog number: 35865
Epoch time:      11097.70963162
Element set:     258
Inclination:      098.7109 deg
RA of node:       153.7287 deg
Eccentricity:    0.0001862
Arg of perigee:   218.9964 deg
Mean anomaly:     141.1079 deg
Mean motion:   14.21834335 rev/day
Decay rate:       1.76e-06 rev/day^2
Epoch rev:            8057
Checksum:              318

Satellite: RS-38
Catalog number: 35869
Epoch time:      11097.71823386
Element set:     265
Inclination:      098.7100 deg
RA of node:       153.7767 deg
Eccentricity:    0.0003985
Arg of perigee:   228.4938 deg
Mean anomaly:     131.5889 deg
Mean motion:   14.22003542 rev/day
Decay rate:       1.77e-06 rev/day^2
Epoch rev:            8058
Checksum:              337

/EX


_______________________________________________
Via the Keps mailing list courtesy of AMSAT-NA
http://amsat.org/mailman/listinfo/keps

--- ViaMAIL!/WC v1.60d
 * Origin: Chowdanet (401-724-4410) telnet://chowdanet.com  (1:323/120)